SYR224 OSDI-EDDF

Flight info

Callsign SYR224
Flight time N/A
Altitude 37000
Route LEBOR L513 BRAVO R785 NIKAS M978 ALSUS L620 VESAR UB545 MUT UL619 OSVEL UB545 KFK UM855 SISPI UT615 SULTA UW714 YAA UA16 VADEN Y520 UTEKA DCT TUVAR DCT BAREB DCT PESAT DCT DITIS DCT RAPET T843 ARNIX DCT KERAX KERAX5A
Aircraft A343/H-SDE2E3FGHIJ4J5M1RWXY/LB1D1

Departure

Time 2026-05-07 06:45
Airport Damascus International Airport (OSDI)

Arrival

Time N/A
Airport Frankfurt Main Airport (EDDF)
Time Latitude Longitude Altitude Speed Heading
2026-05-07 06:31 33.41262 36.51617 2004 ft 0 kts 219°
2026-05-07 06:36 33.41256 36.51613 2000 ft 4 kts 212°
2026-05-07 06:36 33.41240 36.51600 2000 ft 3 kts 33°
2026-05-07 06:37 33.41216 36.51589 2002 ft 4 kts
2026-05-07 06:37 33.41193 36.51586 2001 ft 4 kts 46°
2026-05-07 06:37 33.41189 36.51583 2001 ft 3 kts 96°
2026-05-07 06:40 33.41187 36.51602 2003 ft 4 kts 97°
2026-05-07 06:40 33.41184 36.51635 2001 ft 4 kts 95°
2026-05-07 06:41 33.41182 36.51673 2003 ft 5 kts 93°
2026-05-07 06:41 33.41180 36.51719 2004 ft 6 kts 93°
2026-05-07 06:41 33.41177 36.51774 2003 ft 8 kts 93°
2026-05-07 06:41 33.41174 36.51848 2001 ft 10 kts 94°
2026-05-07 06:42 33.41167 36.51934 2002 ft 11 kts 98°
2026-05-07 06:42 33.41125 36.52006 2004 ft 11 kts 139°
2026-05-07 06:42 33.41064 36.52070 2001 ft 12 kts 139°
2026-05-07 06:42 33.41000 36.52138 2001 ft 13 kts 139°
2026-05-07 06:43 33.40934 36.52208 2001 ft 13 kts 139°
2026-05-07 06:43 33.40865 36.52280 2002 ft 13 kts 139°
2026-05-07 06:43 33.40795 36.52354 2003 ft 14 kts 138°
2026-05-07 06:43 33.40722 36.52427 2002 ft 14 kts 146°
2026-05-07 06:44 33.40632 36.52440 2002 ft 13 kts 183°
2026-05-07 06:44 33.40559 36.52382 2002 ft 13 kts 230°
2026-05-07 06:44 33.40425 36.52199 2004 ft 55 kts 227°
2026-05-07 06:44 33.40035 36.51675 2002 ft 112 kts 228°
2026-05-07 06:45 33.39418 36.50847 2004 ft 156 kts 228°
2026-05-07 06:45 33.38625 36.49785 2256 ft 177 kts 228°
2026-05-07 06:45 33.37832 36.48655 2772 ft 178 kts 239°
2026-05-07 06:45 33.37397 36.47259 3298 ft 186 kts 259°
2026-05-07 06:46 33.37473 36.45639 3522 ft 209 kts 295°
2026-05-07 06:46 33.38500 36.44380 3829 ft 226 kts 337°
2026-05-07 06:46 33.40121 36.44186 4090 ft 248 kts 16°
2026-05-07 06:46 33.41568 36.45311 4792 ft 255 kts 53°
2026-05-07 06:47 33.42217 36.47280 5514 ft 259 kts 86°
2026-05-07 06:47 33.42879 36.49292 6278 ft 267 kts 55°
2026-05-07 06:47 33.44048 36.51056 7030 ft 274 kts 49°
2026-05-07 06:47 33.45565 36.52485 7747 ft 283 kts 25°
2026-05-07 06:48 33.47489 36.52930 8526 ft 286 kts 354°
2026-05-07 06:48 33.49439 36.52605 9372 ft 287 kts 347°
2026-05-07 06:48 33.51414 36.52153 10181 ft 291 kts 346°
2026-05-07 06:48 33.53461 36.51687 10580 ft 309 kts 346°
2026-05-07 06:49 33.55644 36.51205 10875 ft 329 kts 347°
2026-05-07 06:49 33.57942 36.50712 11155 ft 346 kts 347°
2026-05-07 06:49 33.60392 36.50224 11497 ft 362 kts 350°
2026-05-07 06:49 33.62947 36.50204 12072 ft 372 kts
2026-05-07 06:50 33.65544 36.50525 12692 ft 378 kts
2026-05-07 06:50 33.68170 36.50894 13264 ft 382 kts
2026-05-07 06:50 33.70825 36.51269 13959 ft 385 kts
2026-05-07 06:50 33.73496 36.51642 14586 ft 388 kts
2026-05-07 06:51 33.76164 36.52010 15141 ft 393 kts
2026-05-07 06:51 33.78926 36.52389 15749 ft 397 kts
2026-05-07 06:51 33.81685 36.52767 16375 ft 400 kts
2026-05-07 06:51 33.84429 36.53144 16981 ft 404 kts
2026-05-07 06:52 33.87241 36.53519 17593 ft 407 kts
2026-05-07 06:52 33.90078 36.53863 18203 ft 411 kts
2026-05-07 06:52 33.92943 36.54203 18756 ft 415 kts
2026-05-07 06:52 33.95829 36.54550 19270 ft 419 kts
2026-05-07 06:53 33.98744 36.54902 19809 ft 422 kts
2026-05-07 06:53 34.00883 36.55161 20179 ft 425 kts
2026-05-07 06:53 34.03831 36.55520 20729 ft 428 kts
2026-05-07 06:53 34.06808 36.55882 21259 ft 431 kts
2026-05-07 06:54 34.09799 36.56248 21738 ft 434 kts
2026-05-07 06:54 34.12814 36.56617 22230 ft 438 kts
2026-05-07 06:54 34.15857 36.56988 22741 ft 441 kts
2026-05-07 06:54 34.18926 36.57363 23251 ft 444 kts
2026-05-07 06:55 34.22023 36.57742 23760 ft 448 kts
2026-05-07 06:55 34.25089 36.58118 24214 ft 449 kts
2026-05-07 06:55 34.28245 36.58514 24628 ft 452 kts
2026-05-07 06:55 34.31340 36.58974 25010 ft 456 kts
2026-05-07 06:56 34.34502 36.59498 25405 ft 460 kts
2026-05-07 06:56 34.37685 36.60045 25802 ft 463 kts
2026-05-07 06:56 34.40885 36.60596 26183 ft 465 kts
2026-05-07 06:56 34.44107 36.61143 26589 ft 468 kts
2026-05-07 06:57 34.47342 36.61685 26953 ft 471 kts
2026-05-07 06:57 34.50599 36.62223 27313 ft 473 kts
2026-05-07 06:57 34.53881 36.62762 27669 ft 476 kts
2026-05-07 06:57 34.57170 36.63301 28013 ft 478 kts
2026-05-07 06:58 34.60478 36.63732 28335 ft 477 kts 356°
2026-05-07 06:58 34.63740 36.63664 28670 ft 472 kts 348°
2026-05-07 06:58 34.66958 36.63001 28992 ft 466 kts 339°
2026-05-07 06:58 34.70004 36.61733 29306 ft 460 kts 330°
2026-05-07 06:59 34.72796 36.59895 29612 ft 454 kts 321°
2026-05-07 06:59 34.75281 36.57539 29925 ft 449 kts 312°
2026-05-07 06:59 34.77516 36.54883 30282 ft 448 kts 309°
2026-05-07 06:59 34.79668 36.52155 30658 ft 446 kts 308°
2026-05-07 07:00 34.81755 36.49431 31050 ft 444 kts 308°
2026-05-07 07:00 34.83841 36.46683 31516 ft 441 kts 308°
2026-05-07 07:00 34.85923 36.43944 31894 ft 439 kts 308°
2026-05-07 07:00 34.88003 36.41219 32221 ft 439 kts 308°
2026-05-07 07:01 34.90094 36.38491 32550 ft 438 kts 308°
2026-05-07 07:01 34.92160 36.35806 32914 ft 437 kts 308°
2026-05-07 07:01 34.94241 36.33107 33282 ft 435 kts 308°
2026-05-07 07:01 34.96311 36.30423 33597 ft 434 kts 309°
2026-05-07 07:02 34.98379 36.27738 33908 ft 434 kts 308°
2026-05-07 07:02 35.00441 36.25057 34204 ft 433 kts 308°
2026-05-07 07:02 35.02501 36.22376 34503 ft 432 kts 309°
2026-05-07 07:02 35.04583 36.19664 34764 ft 432 kts 309°
2026-05-07 07:03 35.06636 36.16989 34948 ft 433 kts 309°
2026-05-07 07:03 35.08670 36.14334 35124 ft 434 kts 309°
2026-05-07 07:03 35.10731 36.11642 35334 ft 434 kts 309°
2026-05-07 07:03 35.12798 36.08941 35561 ft 434 kts 309°
2026-05-07 07:04 35.14861 36.06243 35782 ft 434 kts 309°
2026-05-07 07:04 35.16858 36.03477 35978 ft 432 kts 304°
2026-05-07 07:04 35.18563 36.00469 36203 ft 429 kts 297°
2026-05-07 07:04 35.19902 35.97219 36404 ft 427 kts 289°
2026-05-07 07:05 35.20825 35.93787 36606 ft 425 kts 282°
2026-05-07 07:05 35.21309 35.90233 36793 ft 424 kts 274°
2026-05-07 07:05 35.21381 35.87842 36923 ft 424 kts 268°
2026-05-07 07:06 35.19043 35.69429 37133 ft 422 kts 261°
2026-05-07 07:07 35.18009 35.62402 37135 ft 423 kts 261°
2026-05-07 07:07 35.16962 35.55322 37127 ft 423 kts 261°
2026-05-07 07:08 35.15924 35.48278 37134 ft 423 kts 261°
2026-05-07 07:08 35.14881 35.41185 37132 ft 425 kts 261°
2026-05-07 07:09 35.13829 35.34062 37132 ft 425 kts 261°
2026-05-07 07:09 35.12776 35.26963 37132 ft 425 kts 261°
2026-05-07 07:10 35.11717 35.19853 37136 ft 425 kts 261°
2026-05-07 07:10 35.10661 35.12791 37138 ft 425 kts 261°
2026-05-07 07:11 35.09595 35.05693 37140 ft 425 kts 261°
2026-05-07 07:11 35.08524 34.98590 37153 ft 425 kts 261°
2026-05-07 07:12 35.07987 34.95042 37141 ft 425 kts 261°
2026-05-07 07:12 35.06764 34.86983 37140 ft 425 kts 261°